Regional Weather Roundup
Issued by NWS Newport/Morehead, NC

Current Version | Previous Version | Text Only | Print | Product List | Glossary On
Versions: 1 2 3 4 5 6 7 8 9 10 11 12 13 14 15 16 17 18 19 20 21 22 23 24 25 26 27 28 29 30 31 32 33 34 35 36 37 38 39 40 41 42 43 44 45 46 47 48 49 50
000
ASUS42 KMHX 290810
RWRMHX
WEATHER ROUNDUP FOR EASTERN NORTH CAROLINA
NATIONAL WEATHER SERVICE NEWPORT/MOREHEAD CITY NC
300 AM EST THU JAN 29 2015

NOTE: "FAIR" INDICATES FEW OR NO CLOUDS BELOW 12,000 FEET
WITH NO SIGNIFICANT WEATHER AND/OR OBSTRUCTIONS TO VISIBILITY

NCZ015>017-031-032-045>047-102-103-290900-
NORTH COAST

CITY           SKY/WX    TMP DP  RH WIND       PRES   REMARKS
EDENTON        CLEAR     24  16  72 N3        30.34F
ELIZABETH CITY CLEAR     24  13  62 W5        30.33F
KITTY HAWK     SUNNY     33  17  52 N5        30.30F
MANTEO         CLEAR     32  19  59 N10       30.32S

$$

NCZ045>047-081-094-103-104-290900-
CENTRAL COAST

CITY           SKY/WX    TMP DP  RH WIND       PRES   REMARKS
FRISCO         CLEAR     34  23  64 VRB6      30.31S
SWANQUARTER    NOT AVBL

$$

NCZ095-097-098-100-101-290900-
SOUTHERN COAST

CITY           SKY/WX    TMP DP  RH WIND       PRES   REMARKS
BEAUFORT       CLEAR     28  17  63 N6        30.33F
CEDAR ISLAND   NOT AVBL
JACKSONVILLE   CLEAR     26  20  77 CALM      30.34S
PINEY ISLAND     N/A    N/A N/A N/A MISG      30.32F
WILMINGTON     CLEAR     25  21  85 CALM      30.34S


$$

NCZ011>013-027>030-043-044-078>080-089-090>093-098-290900-
COASTAL PLAIN

CITY           SKY/WX    TMP DP  RH WIND       PRES   REMARKS
AHOSKIE        CLEAR     22  12  65 CALM      30.35S
CLINTON        CLEAR     25  23  94 CALM      30.35R
ELIZABETHTOWN  CLEAR     24  20  82 CALM      30.34R
GOLDSBORO      CLEAR     24  23  97 CALM      30.34R
GREENVILLE     CLEAR     23  19  86 CALM      30.35S
HAVELOCK       CLEAR     31  14  49 N9        30.34F
KENANSVILLE    CLEAR     22  21  96 CALM      30.35R
KINSTON        CLEAR     23  18  82 CALM      30.35S
NEW BERN       CLEAR     27  19  72 CALM      30.35F
RICHLANDS      CLEAR     21  18  86 CALM      30.34R
ROCKY MOUNT    CLEAR     24  18  77 CALM      30.35S
WASHINGTON     CLEAR     26  13  57 CALM      30.34S
WHITEVILLE     CLEAR     26  22  85 CALM      30.34R

$$

AMZ130-135-150-152-154-156-158-170-250-252-270-ANZ085-086-088-633-658-670-290900-
MARINE OBSERVATIONS

STATION/POSITION TIME  TEMP    WIND        PRES    WAVE   SWELL
                       AIR SEA DIR/SP/G            HT/PER HT/PER
                 (UTC) (F)     (DEG/KT/KT) (MB)    (FT/S) (FT/S)
CHESAPEAKE LIGHT 0700   34      10/ 18/ 21 1027.0
64 E VA BEACH    0800   37 50  360/ 14/ 17 1025.0    6/ 8   5/ 8
DUCK             0800   35 42   10/ 14/ 17 1025.6
2 E DUCK         0800      42                N/A     5/13   2/13
10 NE DUCK       0800      45                N/A     6/ 6   2/12
OREGON INLET     0800   34 43  350/ 10/ 13 1026.4
13E OREGON INLT  0800      45                N/A     7/ 7   3/13
HATTERAS CG      0800   36 43  350/ 15/ 18 1026.5
DIAMOND BUOY     0800   40 71  340/ 17/ 19 1025.5    6/ 9   5/ 9
17 S OCRACOKE    NOT AVBL
CAPE LOOKOUT     0700   37     350/ 11/ 14 1027.0
BEAUFORT LAB     0800   35 46   10/  9/ 10 1026.0
27 SE WRIGHTSVLE NOT AVBL
5 SE WRIGHTSVLE  0700   43 52   20/ 10/ 12 1027.1
225 S CAPE HAT   0727   56 72  340/ 17/ 21 1024.0   10/ 9   7/ 9
41 SE CHARLESTON 0800   50 67   40/ 10/ 14 1026.0    4/ 6   3/ 6

$$


USA.gov is the U.S. government's official web portal to all federal, state and local government web resources and services.